Flag for U.S.A. Weather past 2 weeks in Milwaukee, Wisconsin, U.S.A.

Now
61 °F

Sunny.


Feels Like: 61 °F
Forecast: 45 / 60 °F
Wind: 8 mph from Southeast

Location: Milwaukee / Timmerman

Current Time: May 22, 2015 at 5:41:32 PM

Latest Report: May 22, 2015 at 4:45 PM


Visibility: 10 mi

Pressure: 30.26 "Hg

Humidity: 20%

Dew point: 19 °F

Location of MilwaukeeLocation

Historic Weather in Milwaukee — Graph

°F

Milwaukee temperature yesterday

Maximum temperature yesterday: 72 °F (at 4:51 PM)
Minimum temperature yesterday: 41 °F (at 3:15 AM)
Average temperature yesterday: 51 °F

Past Weeks' High & Low Weather Summary

 TemperatureHumidityPressure
High82 °F (May 7, 3:45 PM)100% (May 11, 1:15 AM)30.51 "Hg (May 11, 1:15 AM)
Low34 °F (May 13, 3:55 AM)20% (May 22, 2:45 PM)29.72 "Hg (May 11, 3:45 PM)
Average52 °F69%30.07 "Hg
* Reported May 7 3:45 PM — May 22 3:45 PM, Milwaukee, Weather by CustomWeather, © 2015

Note: Actual official high and low records may vary slightly from our data, if they occured in-between our weather recording intervals... More about our weather records

Advertising

Milwaukee weather history for previous 24 hours

 ConditionsComfort  
Time TempWeatherWind HumidityBarometerVisibility
3:45 PM
Fri, May 22
61 °FSunny.9 mph20%30.27 "Hg10 mi
2:45 PM61 °FSunny.9 mph20%30.26 "Hg10 mi
1:45 PM61 °FSunny.9 mph22%30.26 "Hg10 mi
12:45 PM59 °FSunny.5 mph25%30.27 "Hg10 mi
11:45 AM57 °FSunny.6 mph21%30.26 "Hg10 mi
10:45 AM57 °FSunny.7 mph25%30.25 "Hg10 mi
9:45 AM55 °FSunny.5 mph26%30.24 "Hg10 mi
8:45 AM54 °FSunny.7 mph26%30.23 "Hg10 mi
7:45 AM50 °FSunny.5 mph43%30.21 "Hg10 mi
7:15 AM48 °FSunny.3 mph46%30.20 "Hg10 mi
6:55 AM45 °FSunny.5 mph61%30.20 "Hg10 mi
6:35 AM41 °FSunny.No wind70%30.19 "Hg10 mi
6:15 AM41 °FClear.No wind70%30.18 "Hg10 mi
5:55 AM37 °FClear.No wind81%30.18 "Hg10 mi
5:15 AM37 °FClear.No wind81%30.15 "Hg10 mi
4:55 AM41 °FClear.No wind70%30.14 "Hg10 mi
4:15 AM41 °FClear.No wind70%30.13 "Hg10 mi
3:55 AM41 °FClear.No wind70%30.12 "Hg10 mi
3:35 AM41 °FClear.No wind70%30.11 "Hg10 mi
3:15 AM41 °FClear.No wind70%30.10 "Hg10 mi
2:55 AM43 °FClear.No wind66%30.09 "Hg10 mi
2:35 AM46 °FClear.No wind50%30.08 "Hg10 mi
2:15 AM46 °FClear.No wind53%30.09 "Hg10 mi
1:55 AM46 °FClear.No wind53%30.09 "Hg10 mi
1:35 AM46 °FPassing clouds.6 mph53%30.08 "Hg10 mi
1:15 AM46 °FClear.6 mph53%30.08 "Hg10 mi
12:55 AM46 °FClear.5 mph57%30.08 "Hg10 mi
12:35 AM46 °FClear.6 mph57%30.07 "Hg10 mi
12:15 AM46 °FClear.8 mph57%30.07 "Hg10 mi
11:55 PM
Thu, May 21
46 °FClear.9 mph62%30.07 "Hg10 mi
11:35 PM48 °FPassing clouds.8 mph58%30.06 "Hg10 mi
11:15 PM48 °FPartly cloudy.8 mph62%30.06 "Hg10 mi
10:55 PM50 °FPassing clouds.9 mph62%30.05 "Hg10 mi
10:35 PM52 °FLight rain. Overcast.No wind58%30.04 "Hg10 mi
10:15 PM52 °FMostly cloudy.9 mph62%30.04 "Hg10 mi
9:55 PM55 °FMostly cloudy.16 mph59%30.03 "Hg10 mi
9:15 PM61 °FMostly cloudy.12 mph48%29.99 "Hg10 mi
8:45 PM64 °FLight rain. Cloudy.15 mph34%29.98 "Hg10 mi
7:45 PM66 °FSunny.8 mph26%29.95 "Hg10 mi
5:45 PM70 °FScattered clouds.15 mph23%29.96 "Hg10 mi
Weather by CustomWeather, © 2015

See weather overviewHow to use our weather pages